Date String (YYYY-MM-DD hh:mm:ss) UTC,Instrument flags,Ambient pressure (hPa),Sample flow (lpm),Bypass flow (lpm),Sample temperature (°C),Ambient temperature (°C),ASC tube jacket temperature (°C),LED temperature (°C),Box temperature (°C),Sample RH (%),Span deviation,Mass concentration (μg/m³),Mass concentration (μg/m³),Mass concentration (μg/m³)
DateTimeUTC,F1_M11,P_M11,Q1_M11,Q2_M11,T1_M11,T2_M11,T3_M11,T4_M11,T5_M11,U1_M11,ZSPAN_M11,X0_M11,X2_M11,X1_M11
2021-09-04 00:00:00,,0827.3,5.00,0.00,30.4,27.9,00.0,39.0,31.5,33.8,0000.9,0018.95,0009.33,0008.35
2021-09-04 00:01:00,,0827.3,4.99,0.00,30.4,28.2,00.0,39.0,31.6,33.8,0001.2,0019.36,0009.35,0008.38
2021-09-04 00:02:00,,0827.4,5.01,0.00,30.4,28.3,00.0,39.1,31.6,33.8,0001.0,0018.22,0009.41,0008.42
2021-09-04 00:03:00,,0827.4,5.00,0.00,30.4,28.5,00.0,39.1,31.7,33.7,0000.7,0018.20,0009.45,0008.45
2021-09-04 00:04:00,,0827.4,5.01,0.00,30.4,28.6,00.0,39.1,31.8,33.7,0000.5,0018.25,0009.48,0008.49
2021-09-04 00:05:00,,0827.5,4.98,0.00,30.5,28.8,00.0,39.1,31.8,33.7,0000.8,0017.98,0009.50,0008.50
2021-09-04 00:06:00,,0827.6,4.99,0.00,30.5,28.9,00.0,39.2,31.9,33.9,0001.0,0017.20,0009.50,0008.51
2021-09-04 00:07:00,,0827.5,5.01,0.00,30.5,28.8,00.0,39.2,31.9,33.8,0001.1,0017.22,0009.59,0008.55
2021-09-04 00:08:00,,0827.5,5.00,0.00,30.4,27.2,00.0,39.2,31.4,34.1,0001.1,0017.01,0009.62,0008.59
2021-09-04 00:09:00,,0827.6,5.00,0.00,30.2,26.0,00.0,39.2,31.0,34.5,0001.0,0016.51,0009.66,0008.65
2021-09-04 00:10:00,,0827.5,5.00,0.00,30.1,25.9,00.0,39.1,31.0,34.7,0001.4,0016.20,0009.69,0008.71
2021-09-04 00:11:00,,0827.5,5.00,0.00,30.0,26.3,00.0,39.1,31.0,35.1,0001.8,0017.01,0009.79,0008.76
2021-09-04 00:12:00,,0827.6,5.02,0.00,30.2,26.8,00.0,39.1,31.3,34.8,0001.7,0016.28,0009.86,0008.81
2021-09-04 00:13:00,,0827.5,4.99,0.00,30.3,27.2,00.0,39.0,31.5,34.1,0001.6,0016.44,0009.91,0008.83
2021-09-04 00:14:00,,0827.5,5.00,0.00,30.4,27.6,00.0,39.0,31.5,34.0,0001.7,0016.98,0009.95,0008.88
2021-09-04 00:15:00,,0827.5,5.00,0.00,30.5,27.9,00.0,39.0,31.6,33.8,0001.7,0017.49,0009.96,0008.92
2021-09-04 00:16:00,,0827.5,4.99,0.00,30.5,28.2,00.0,39.1,31.7,33.7,0001.5,0018.61,0010.01,0008.97
2021-09-04 00:17:00,,0827.5,5.01,0.00,30.5,28.4,00.0,39.1,31.7,33.8,0001.3,0019.81,0010.07,0009.03
2021-09-04 00:18:00,,0827.5,5.00,0.00,30.6,28.6,00.0,39.2,31.8,33.6,0001.2,0020.67,0010.09,0009.07
2021-09-04 00:19:00,,0827.6,4.99,0.00,30.6,28.7,00.0,39.2,31.8,33.6,0001.3,0020.68,0010.11,0009.11
2021-09-04 00:20:00,,0827.7,5.01,0.00,30.6,28.9,00.0,39.2,31.9,33.4,0001.3,0020.87,0010.16,0009.14
2021-09-04 00:21:00,,0827.7,5.00,0.00,30.6,29.0,00.0,39.3,31.9,33.3,0001.2,0021.73,0010.22,0009.14
2021-09-04 00:22:00,,0827.8,5.00,0.00,30.6,28.0,00.0,39.3,31.7,33.5,0000.9,0021.41,0010.25,0009.16
2021-09-04 00:23:00,,0827.7,4.99,0.00,30.5,26.4,00.0,39.3,31.2,33.9,0001.1,0021.77,0010.26,0009.19
2021-09-04 00:24:00,,0827.8,5.00,0.00,30.3,25.9,00.0,39.3,31.0,34.3,0001.4,0022.12,0010.32,0009.24
2021-09-04 00:25:00,,0827.8,5.00,0.00,30.2,26.2,00.0,39.2,31.1,34.8,0001.6,0022.02,0010.30,0009.26
2021-09-04 00:26:00,,0827.8,5.01,0.00,30.2,26.7,00.0,39.2,31.2,35.1,0001.5,0022.57,0010.34,0009.29
2021-09-04 00:27:00,,0827.9,5.00,0.00,30.4,27.1,00.0,39.1,31.5,34.7,0001.6,0021.99,0010.39,0009.30
2021-09-04 00:28:00,,0827.9,4.99,0.00,30.5,27.5,00.0,39.1,31.6,34.5,0001.6,0020.82,0010.40,0009.31
2021-09-04 00:29:00,,0828.0,5.01,0.00,30.6,27.9,00.0,39.1,31.6,34.3,0001.4,0019.82,0010.40,0009.31
2021-09-04 00:30:00,,0827.9,4.99,0.00,30.6,28.2,00.0,39.1,31.7,33.9,0001.2,0020.71,0010.43,0009.34
2021-09-04 00:31:00,,0828.0,5.01,0.00,30.7,28.4,00.0,39.2,31.7,34.0,0001.2,0021.81,0010.46,0009.38
2021-09-04 00:32:00,,0827.9,5.00,0.00,30.7,28.6,00.0,39.2,31.8,34.1,0001.3,0021.16,0010.39,0009.41
2021-09-04 00:33:00,,0828.0,4.99,0.00,30.7,28.8,00.0,39.3,31.8,34.0,0001.4,0020.70,0010.42,0009.44
2021-09-04 00:34:00,,0828.0,5.00,0.00,30.7,28.9,00.0,39.3,31.9,34.1,0001.3,0019.63,0010.41,0009.46
2021-09-04 00:35:00,,0828.0,5.00,0.00,30.8,29.1,00.0,39.4,31.9,34.1,0000.9,0019.65,0010.38,0009.45
2021-09-04 00:36:00,,0828.0,5.00,0.00,30.8,28.8,00.0,39.4,31.9,34.1,0000.7,0019.32,0010.39,0009.44
2021-09-04 00:37:00,,0828.0,5.01,0.00,30.7,27.0,00.0,39.4,31.4,34.3,0000.6,0018.04,0010.31,0009.41
2021-09-04 00:38:00,,0827.9,5.00,0.00,30.5,26.0,00.0,39.3,31.1,34.7,0000.5,0017.72,0010.24,0009.38
2021-09-04 00:39:00,,0827.9,4.99,0.00,30.4,26.0,00.0,39.3,31.1,35.0,0000.6,0017.75,0010.22,0009.34
2021-09-04 00:40:00,,0828.0,5.01,0.00,30.3,26.5,00.0,39.3,31.2,35.2,0000.8,0017.54,0010.16,0009.28
2021-09-04 00:41:00,,0828.0,5.01,0.00,30.5,26.9,00.0,39.2,31.4,34.7,0000.9,0016.36,0010.02,0009.18
2021-09-04 00:42:00,,0828.0,5.01,0.00,30.7,27.4,00.0,39.2,31.6,34.4,0000.9,0014.83,0009.93,0009.09
2021-09-04 00:43:00,,0828.1,5.00,0.00,30.8,27.7,00.0,39.2,31.7,34.3,0001.1,0015.09,0009.89,0009.01
2021-09-04 00:44:00,,0828.1,5.01,0.00,30.8,28.0,00.0,39.2,31.7,34.3,0001.1,0015.24,0009.76,0008.91
2021-09-04 00:45:00,,0828.1,5.00,0.00,30.8,28.3,00.0,39.3,31.7,34.3,0001.0,0015.15,0009.68,0008.83
2021-09-04 00:46:00,,0828.1,4.99,0.00,30.9,28.5,00.0,39.3,31.8,34.4,0001.3,0014.85,0009.67,0008.80
2021-09-04 00:47:00,,0828.1,5.01,0.00,30.9,28.7,00.0,39.4,31.8,34.4,0001.6,0014.86,0009.68,0008.77
2021-09-04 00:48:00,,0828.1,5.01,0.00,30.9,28.9,00.0,39.4,31.9,34.4,0001.8,0015.10,0009.67,0008.75
2021-09-04 00:49:00,,0828.1,5.00,0.00,30.9,29.0,00.0,39.4,31.9,34.2,0002.3,0015.61,0009.71,0008.74
2021-09-04 00:50:00,,0828.3,4.99,0.00,30.9,29.0,00.0,39.5,32.0,34.2,0002.3,0015.91,0009.74,0008.75
2021-09-04 00:51:00,,0828.1,5.01,0.00,30.9,27.7,00.0,39.5,31.6,34.3,0002.2,0016.45,0009.75,0008.78
2021-09-04 00:52:00,,0828.1,5.00,0.00,30.7,26.1,00.0,39.5,31.2,34.6,0002.2,0017.28,0009.81,0008.83
2021-09-04 00:53:00,,0828.1,4.99,0.00,30.5,25.8,00.0,39.5,31.1,34.8,0002.5,0018.87,0009.86,0008.87
2021-09-04 00:54:00,,0828.1,5.02,0.00,30.4,26.2,00.0,39.4,31.1,35.1,0002.1,0019.00,0009.88,0008.90
2021-09-04 00:55:00,,0828.1,4.99,0.00,30.5,26.6,00.0,39.4,31.3,34.6,0001.8,0018.90,0009.91,0008.95
2021-09-04 00:56:00,,0828.1,5.01,0.00,30.6,27.1,00.0,39.3,31.5,33.6,0001.6,0019.34,0009.96,0009.02
2021-09-04 00:57:00,,0828.1,5.00,0.00,30.6,27.5,00.0,39.3,31.5,32.5,0001.5,0019.40,0009.98,0009.07
2021-09-04 00:58:00,,0828.1,5.00,0.00,30.6,27.8,00.0,39.3,31.6,31.2,0001.4,0019.25,0010.01,0009.14
2021-09-04 00:59:00,,0828.1,5.00,0.00,30.7,28.1,00.0,39.3,31.7,30.7,0001.4,0019.33,0010.12,0009.26
